Content
SEND FEEDBACK

Daily
Averages
Monthly
Summary
Australia

MELBOURNE, VICTORIA


Home > Oceania > Australia > Victoria
Elevation: 131 meters     Latitude: 37 41S     Longitude: 144 51E

WEATHER
 
SELECT A DAY
Number of Records: 284,164;   Date Range: 7/1/96 - 7/20/14
 
SHARE

PRINT THIS DATA

[ ← Previous Day ]
WEATHER ALMANAC - 31 JANUARY, 2013
[ Next Day → ]
[ °F ]   °C
Weather ElementAverageHighLow
Temperature16.7 °C25 °C (1:00 pm)11.7 °C (11:00 pm)
Dewpoint11.7 °C14 °C (2:00 pm)8.9 °C (11:00 am)
Humidity73.6 %95 % (8:00 pm)30 % (11:00 am)
Barometer1010.5 hPa1013.5 hPa (11:00 pm)1005.1 hPa (4:30 pm)
Wind Speed20.3 km/h59.2 km/h (4:53 pm)
Wind Gust81.4 km/h (4:52 pm)
Weather ElementAverage
Visibility10.9 km
Wind DirectionWSW (234.3 °)

Weather ElementTotal
Precipitation---
Growing Degree Days8.3 (Base 10)
Averaged from 75 records on 31 January, 2013
WEATHER CONDITIONS BREAKOUT
WIND DIRECTION BREAKOUT
WEATHER BY HOUR - 31 JANUARY, 2013
[ °F ]   °C
Local TimeTemperatureDewpointHumidityBarometerVisibilityWind DirectionWind SpeedGust SpeedPrecipitationEventsConditions
12:00 AM17 °C12 °C72 %1012.2 hPaWest (260°)16.7 km/hClear
12:30 AM16 °C12 °C77 %1012.2 hPaWest (270°)16.7 km/hClear
1:00 AM16 °C12 °C77 %1012.2 hPaWest (270°)18.5 km/hClear
1:30 AM16 °C12 °C77 %1012.2 hPaWest (280°)16.7 km/hClear
2:00 AM15 °C11.1 °C72 %1011.9 hPaWest (280°)16.7 km/h
2:00 AM15 °C11 °C77 %1012.2 hPaWest (280°)16.7 km/hClear
2:30 AM15 °C11 °C77 %1012.2 hPaWNW (290°)14.8 km/hClear
3:00 AM14.4 °C10.6 °C72 %1011.9 hPa40.2 kmWest (280°)13 km/hPartly Cloudy
3:00 AM15 °C11 °C77 %1012.2 hPaWest (280°)13 km/hClear
3:30 AM15 °C11 °C77 %1011.2 hPaWest (280°)13 km/hClear
4:00 AM15 °C11 °C77 %1011.2 hPaWNW (300°)11.1 km/hClear
4:30 AM14 °C11 °C82 %1011.2 hPaNorth (360°)9.3 km/hClear
5:00 AM13.9 °C10.6 °C75 %1011.2 hPaNorth14.8 km/h
5:00 AM14 °C11 °C82 %1011.2 hPaNorth (360°)14.8 km/hClear
5:30 AM14 °C10 °C77 %1011.2 hPaNorth (360°)14.8 km/hClear
6:00 AM13.9 °C10.6 °C72 %1010.8 hPa40.2 kmNorth18.5 km/hPartly Cloudy
6:00 AM14 °C10 °C77 %1011.2 hPaNorth (360°)18.5 km/hClear
6:30 AM14 °C10 °C77 %1011.2 hPaNorth (360°)16.7 km/hClear
7:00 AM14 °C10 °C77 %1011.2 hPaNorth (350°)14.8 km/hClear
7:30 AM15 °C10 °C72 %1011.2 hPaNorth (360°)14.8 km/hClear
8:00 AM17.2 °C10.6 °C55 %1010.8 hPaNorth16.7 km/h
8:00 AM17 °C11 °C68 %1011.2 hPaNorth (360°)16.7 km/hClear
8:30 AM19 °C11 °C60 %1011.2 hPaNorth (350°)11.1 km/hClear
9:00 AM20 °C11 °C56 %1011.2 hPaNorth (350°)11.1 km/hClear
9:00 AM20 °C11.1 °C46 %1010.8 hPa30.6 kmNorth (350°)11.1 km/hPartly Cloudy
9:30 AM21 °C10 °C49 %1010.2 hPaWNW (290°)7.4 km/hClear
10:00 AM22 °C10 °C46 %1010.2 hPa10 kmWest (280°)9.3 km/hMostly Cloudy
10:30 AM23 °C9 °C41 %1010.2 hPa10 kmSW (230°)13 km/hMostly Cloudy
11:00 AM23 °C9 °C41 %1010.2 hPaSSW (210°)14.8 km/hClear
11:00 AM22.8 °C8.9 °C30 %1009.8 hPaSSW (210°)14.8 km/h
11:30 AM23 °C9 °C41 %1009.1 hPaSouth (190°)13 km/hClear
12:00 PM22.8 °C10.6 °C35 %1009.5 hPa30.6 kmSSW (210°)22.2 km/hPartly Cloudy
12:00 PM23 °C11 °C47 %1009.1 hPaSSW (210°)22.2 km/hClear
12:30 PM23 °C11 °C47 %1009.1 hPaSouth (180°)16.7 km/hClear
1:00 PM25 °C10 °C39 %1008.1 hPaSW (220°)11.1 km/hClear
1:30 PM23 °C13 °C53 %1007.1 hPaSSE (150°)20.4 km/hClear
2:00 PM22 °C14 °C60 %1007.1 hPa10 kmSouth (180°)27.8 km/hMostly Cloudy
2:00 PM22.2 °C13.3 °C48 %1007.1 hPaSouth (180°)27.8 km/h
2:30 PM23 °C13 °C53 %1006.1 hPaSouth (180°)16.7 km/hClear
3:00 PM22.2 °C13.3 °C47 %1006.4 hPa17.7 kmSSE (160°)20.4 km/hMostly Cloudy
3:00 PM22 °C13 °C57 %1006.1 hPa10 kmSSE (160°)20.4 km/hMostly Cloudy
3:30 PM21 °C13 °C60 %1006.1 hPa10 kmSouth (180°)29.6 km/hMostly Cloudy
4:00 PM21 °C13 °C60 %1006.1 hPa10 kmSouth (190°)27.8 km/hRainLight Rain Showers
4:30 PM22 °C13 °C57 %1005.1 hPa10 kmSouth (190°)20.4 km/hPartly Cloudy
4:48 PM21 °C13 °C60 %1007.1 hPa6.9 kmSW (230°)24.1 km/hRain-ThunderstormThunderstorms and Rain
4:52 PM17 °C13 °C77 %1008.1 hPa5 kmSW (230°)33.3 km/h81.4 km/hRain-ThunderstormThunderstorms and Rain
4:53 PM16 °C13 °C82 %1008.1 hPa4 kmWSW (240°)59.2 km/h81.4 km/hRain-ThunderstormThunderstorms and Rain
5:00 PM15 °C13.9 °C89 %1008.5 hPaWSW (240°)55.5 km/h
5:00 PM15 °C14 °C94 %1008.1 hPa4 kmWSW (240°)55.5 km/h81.4 km/hRain-ThunderstormThunderstorms and Rain
5:14 PM15 °C13 °C88 %1009.1 hPa5 kmSW (230°)44.4 km/hRainLight Rain Showers
5:19 PM15 °C14 °C94 %1009.1 hPa6 kmSW (220°)37 km/h55.5 km/hRainLight Rain Showers
5:30 PM15 °C13 °C88 %1009.1 hPa6 kmSW (220°)29.6 km/hRainLight Rain Showers
6:00 PM15 °C13.9 °C91 %1009.8 hPa8 kmSSW (210°)22.2 km/hRainLight Rain
6:00 PM15 °C14 °C94 %1010.2 hPa8 kmSSW (210°)22.2 km/hRainLight Rain
6:08 PM15 °C13 °C88 %1010.2 hPa9 kmSSW (210°)27.8 km/h53.8 km/hRainLight Rain
6:30 PM14 °C13 °C94 %1011.2 hPa6.9 kmWSW (240°)22.2 km/hRainLight Rain
6:38 PM14 °C13 °C94 %1011.2 hPa5 kmWSW (250°)24.1 km/hRainRain
7:00 PM14 °C13 °C94 %1010.2 hPa5 kmSSW (210°)31.5 km/hRainRain
7:15 PM14 °C13 °C94 %1011.2 hPa6.9 kmSW (220°)29.6 km/hRainLight Rain
7:30 PM14 °C13 °C94 %1011.2 hPa5 kmSW (220°)16.7 km/hRainRain
7:49 PM14 °C13 °C94 %1012.2 hPa9 kmSSW (200°)13 km/hRainLight Rain
8:00 PM13.9 °C13.3 °C95 %1011.9 hPaSSW (210°)14.8 km/h
8:00 PM14 °C13 °C94 %1012.2 hPa9 kmSSW (210°)14.8 km/hRainLight Rain
8:30 PM13 °C12 °C94 %1012.2 hPa5 kmSSW (200°)22.2 km/hRainRain
8:50 PM13 °C12 °C94 %1012.2 hPa8 kmSSW (200°)27.8 km/hRainLight Rain
9:00 PM13 °C12 °C94 %1013.2 hPa9 kmSSW (210°)24.1 km/hRainLight Rain
9:00 PM12.8 °C11.7 °C91 %1012.9 hPa11.3 kmSSW (210°)24.1 km/hRainLight Rain
9:30 PM12 °C11 °C94 %1013.2 hPa6.9 kmSW (220°)25.9 km/hLight Drizzle
10:00 PM12 °C10 °C88 %1013.2 hPa8 kmSW (220°)25.9 km/hLight Drizzle
10:20 PM12 °C10 °C88 %1013.2 hPa10 kmSouth (180°)14.8 km/hLight Drizzle
10:30 PM12 °C10 °C88 %1013.2 hPa10 kmSouth (190°)13 km/hLight Drizzle
11:00 PM11.7 °C10.6 °C92 %1013.5 hPaSW (220°)9.3 km/h
11:00 PM12 °C11 °C94 %1013.2 hPa10 kmSW (220°)9.3 km/hMostly Cloudy
11:17 PM12 °C11 °C94 %1013.2 hPa10 kmSW (230°)11.1 km/hMostly Cloudy
11:30 PM12 °C11 °C94 %1013.2 hPa10 kmWSW (240°)11.1 km/hMostly Cloudy
Hourly data recorded from YMML, located 0 kilometers away from Melbourne, Victoria







STORIES FROM OUR PARTNERS